Flag Weather past 2 weeks in Friedrichshafen, Baden-Württemberg, Germany

Now
41 °F

Mostly cloudy.


Feels Like: 39 °F
Forecast: 39 / 48 °F
Wind: 3 mph from Northeast

Location: Friedrichshafen Airport

Current Time: Nov 20, 2014 at 10:42:35 PM

Latest Report: Nov 20, 2014 at 9:50 PM


Visibility: 6 mi

Pressure: 30.24 "Hg

Humidity: 81%

Dew point: 36 °F

Location of FriedrichshafenLocation

Historic Weather in Friedrichshafen — Graph

°F

Friedrichshafen temperature yesterday

Maximum temperature yesterday: 52 °F (at 1:20 PM)
Minimum temperature yesterday: 36 °F (at 9:50 PM)
Average temperature yesterday: 44 °F

Past Weeks' High & Low Weather Summary

 TemperatureHumidityPressure
High57 °F (Nov 8, 2:20 PM)94% (Nov 13, 8:50 AM)30.27 "Hg (Nov 13, 8:50 AM)
Low32 °F (Nov 8, 7:20 AM)47% (Nov 19, 3:20 PM)29.53 "Hg (Nov 15, 7:20 PM)
Average43 °F84%29.84 "Hg
* Reported Nov 5 9:20 PM — Nov 20 9:20 PM, Friedrichshafen, Weather by CustomWeather, © 2014

Note: Actual official high and low records may vary slightly from our data, if they occured in-between our weather recording intervals... More about our weather records

Advertising

Friedrichshafen weather history for previous 24 hours

 ConditionsComfort  
Time TempWeatherWind HumidityBarometerVisibility
9:20 PM
Nov 20
39 °FMostly cloudy.5 mph87%30.24 "Hg5 mi
8:20 PM39 °FClear.2 mph87%30.24 "Hg5 mi
7:50 PM39 °FClear.2 mph87%30.24 "Hg5 mi
7:20 PM39 °FClear.3 mph87%30.24 "Hg10 mi
6:50 PM41 °FClear.3 mph81%30.24 "Hg10 mi
6:20 PM41 °FClear.3 mph81%30.24 "Hg10 mi
5:50 PM41 °FClear.5 mph81%30.24 "Hg10 mi
5:20 PM41 °FClear.7 mph81%30.24 "Hg10 mi
4:50 PM41 °FClear.7 mph81%30.24 "Hg10 mi
4:20 PM41 °FSunny.6 mph81%30.24 "Hg10 mi
3:50 PM41 °FSunny.7 mph81%30.24 "Hg10 mi
3:20 PM41 °FSunny.10 mph81%30.24 "Hg10 mi
2:50 PM43 °FSunny.8 mph76%30.24 "Hg10 mi
2:20 PM45 °FSunny.9 mph71%30.24 "Hg10 mi
1:50 PM45 °FSunny.10 mph71%30.24 "Hg10 mi
1:20 PM45 °FSunny.6 mph71%30.24 "Hg10 mi
12:50 PM43 °FSunny.7 mph76%30.24 "Hg10 mi
12:20 PM43 °FSunny.7 mph81%30.24 "Hg10 mi
11:50 AM41 °FSunny.7 mph81%30.27 "Hg10 mi
11:20 AM39 °FSunny.5 mph87%30.27 "Hg10 mi
10:50 AM39 °FPassing clouds.7 mph87%30.27 "HgN/A
10:20 AM37 °FPassing clouds.7 mph87%30.27 "HgN/A
9:50 AM36 °FPassing clouds.7 mph93%30.27 "HgN/A
9:20 AM36 °FPartly sunny.7 mph93%30.27 "Hg5 mi
8:50 AM34 °FLow clouds.5 mph93%30.27 "HgN/A
8:20 AM34 °FPartly sunny.6 mph93%30.27 "Hg5 mi
7:50 AM34 °FFog.6 mph93%30.27 "Hg2 mi
7:20 AM34 °FFog.5 mph93%30.27 "Hg1 mi
6:50 AM34 °FFog.5 mph93%30.27 "Hg1 mi
6:20 AM34 °FFog.5 mph93%30.24 "Hg1 mi
5:50 AM34 °FFog.6 mph93%30.24 "Hg1 mi
5:20 AM34 °FChilly.5 mph93%30.27 "Hg1 mi
4:50 AM34 °FChilly.6 mph93%30.27 "Hg1 mi
4:20 AM34 °FFog.6 mph93%30.27 "Hg2 mi
3:50 AM34 °FPassing clouds.7 mph93%30.24 "Hg3 mi
3:20 AM36 °FClear.7 mph87%30.24 "Hg4 mi
2:50 AM34 °FChilly.6 mph93%30.24 "Hg4 mi
1:50 AM36 °FChilly.6 mph93%30.24 "Hg3 mi
12:20 AM37 °FClear.6 mph93%30.24 "Hg4 mi
11:55 PM
Nov 19
36 °FChilly.6 mph87%30.24 "Hg2 mi
11:50 PM36 °FFog.3 mph93%30.24 "Hg3 mi
11:20 PM39 °FClear.7 mph93%30.24 "Hg5 mi
10:50 PM37 °FChilly.5 mph93%30.24 "Hg4 mi
10:20 PM36 °FChilly.3 mph93%30.24 "Hg2 mi
Weather by CustomWeather, © 2014

See weather overviewHow to use our weather pages